| time (UTC) | temp F | wind direction | speed knots | gust knots | rain 1hr in | rain 24hr in | rain mn in | humidity % | barometer mb |
| 20260506155940 | 52 | 46 | 0.9 | 5.2 | 0.00 | 0.96 | 0.84 | 94 | 1007.4 |
| 20260506154707 | 52 | 61 | 0.9 | 3.5 | 0.00 | 0.97 | 0.84 | 94 | 1007.1 |
| 20260506153437 | 52 | 65 | 1.7 | 5.2 | 0.00 | 0.99 | 0.84 | 94 | 1007.2 |
| 20260506152207 | 52 | 76 | 2.6 | 6.1 | 0.00 | 0.99 | 0.84 | 94 | 1007.2 |
| 20260506150937 | 52 | 65 | 1.7 | 5.2 | 0.00 | 0.99 | 0.84 | 94 | 1007.4 |
| 20260506145706 | 52 | 55 | 1.7 | 5.2 | 0.01 | 0.99 | 0.84 | 94 | 1007.1 |
| 20260506144436 | 52 | 69 | 1.7 | 5.2 | 0.02 | 0.99 | 0.84 | 94 | 1007.2 |
| 20260506143206 | 52 | 86 | 1.7 | 6.1 | 0.02 | 0.99 | 0.84 | 94 | 1007.3 |
| 20260506141936 | 52 | 68 | 1.7 | 6.1 | 0.02 | 0.99 | 0.84 | 94 | 1007.3 |
| 20260506140705 | 51 | 73 | 2.6 | 7.0 | 0.02 | 0.98 | 0.83 | 94 | 1007.6 |
| 20260506135435 | 51 | 65 | 1.7 | 6.1 | 0.02 | 0.97 | 0.82 | 94 | 1007.4 |
| 20260506134205 | 52 | 59 | 1.7 | 5.2 | 0.02 | 0.97 | 0.82 | 94 | 1007.4 |
| 20260506132935 | 52 | 54 | 0.9 | 2.6 | 0.02 | 0.97 | 0.82 | 94 | 1007.2 |
| 20260506131704 | 52 | 43 | 0.9 | 3.5 | 0.04 | 0.97 | 0.82 | 94 | 1007.3 |
| 20260506130434 | 51 | 75 | 1.7 | 6.1 | 0.04 | 0.96 | 0.81 | 94 | 1007.4 |
| 20260506125204 | 51 | 75 | 1.7 | 3.5 | 0.03 | 0.96 | 0.81 | 94 | 1006.9 |
| 20260506123934 | 51 | 63 | 0.9 | 2.6 | 0.02 | 0.95 | 0.80 | 94 | 1007.3 |
| 20260506122703 | 51 | 62 | 1.7 | 6.1 | 0.02 | 0.95 | 0.80 | 94 | 1007.2 |
| 20260506121433 | 51 | 76 | 1.7 | 5.2 | 0.01 | 0.93 | 0.78 | 94 | 1007.3 |
| 20260506120203 | 51 | 77 | 2.6 | 7.0 | 0.02 | 0.93 | 0.78 | 94 | 1007.0 |
| 20260506114933 | 51 | 78 | 1.7 | 6.1 | 0.04 | 0.93 | 0.78 | 94 | 1007.0 |
| 20260506113703 | 51 | 74 | 2.6 | 6.1 | 0.04 | 0.93 | 0.78 | 94 | 1007.0 |
| 20260506112433 | 51 | 50 | 0.9 | 3.5 | 0.03 | 0.93 | 0.78 | 94 | 1007.2 |
| 20260506111202 | 51 | 65 | 1.7 | 5.2 | 0.02 | 0.92 | 0.77 | 94 | 1007.0 |
| 20260506105932 | 51 | 73 | 2.6 | 5.2 | 0.01 | 0.91 | 0.76 | 94 | 1007.2 |
| 20260506104702 | 51 | 43 | 0.9 | 6.1 | 0.00 | 0.89 | 0.74 | 94 | 1007.0 |
| 20260506103431 | 51 | 71 | 1.7 | 6.1 | 0.00 | 0.89 | 0.74 | 94 | 1007.0 |
| 20260506102201 | 51 | 48 | 0.9 | 3.5 | 0.00 | 0.89 | 0.74 | 94 | 1007.0 |
| 20260506100931 | 51 | 42 | 1.7 | 6.1 | 0.00 | 0.89 | 0.74 | 94 | 1007.0 |
| 20260506095701 | 51 | 73 | 3.5 | 7.0 | 0.00 | 0.89 | 0.74 | 94 | 1007.0 |
| 20260506094431 | 51 | 78 | 2.6 | 6.1 | 0.01 | 0.89 | 0.74 | 94 | 1006.9 |
| 20260506093200 | 51 | 65 | 2.6 | 7.0 | 0.02 | 0.89 | 0.74 | 94 | 1006.8 |
| 20260506091930 | 51 | 56 | 1.7 | 5.2 | 0.02 | 0.89 | 0.74 | 94 | 1007.0 |
| 20260506090700 | 51 | 24 | 0.9 | 3.5 | 0.03 | 0.89 | 0.74 | 95 | 1006.7 |
| 20260506085430 | 51 | 44 | 1.7 | 5.2 | 0.03 | 0.89 | 0.74 | 95 | 1006.5 |
| 20260506084200 | 51 | 25 | 0.9 | 3.5 | 0.04 | 0.88 | 0.73 | 95 | 1007.0 |
| 20260506082929 | 50 | 12 | 1.7 | 6.1 | 0.03 | 0.87 | 0.72 | 95 | 1006.6 |
| 20260506081659 | 50 | 15 | 0.9 | 3.5 | 0.03 | 0.87 | 0.72 | 95 | 1006.5 |
| 20260506080429 | 50 | 22 | 1.7 | 5.2 | 0.03 | 0.87 | 0.72 | 95 | 1006.3 |
| 20260506072659 | 50 | 26 | 1.7 | 5.2 | 0.01 | 0.84 | 0.69 | 95 | 1006.5 |
| 20260506071428 | 50 | 74 | 1.7 | 5.2 | 0.01 | 0.84 | 0.69 | 95 | 1006.4 |
| 20260506070158 | 50 | 74 | 2.6 | 6.1 | 0.00 | 0.83 | 0.69 | 95 | 1006.4 |
| 20260506062427 | 49 | 84 | 1.7 | 5.2 | 0.01 | 0.85 | 0.68 | 95 | 1006.3 |
| 20260506061158 | 49 | 72 | 0.9 | 2.6 | 0.02 | 0.85 | 0.68 | 95 | 1006.0 |
| 20260506050926 | 49 | 40 | 0.9 | 2.6 | 0.02 | 0.84 | 0.67 | 95 | 1006.2 |
| 20260506044426 | 49 | 64 | 1.7 | 3.5 | 0.04 | 0.83 | 0.65 | 95 | 1006.1 |
| 20260506043156 | 49 | 74 | 0.0 | 2.6 | 0.07 | 0.85 | 0.65 | 95 | 1006.4 |
| 20260506041925 | 49 | 45 | 0.9 | 2.6 | 0.09 | 0.85 | 0.65 | 95 | 1006.3 |
| 20260506040655 | 49 | 64 | 0.9 | 3.5 | 0.11 | 0.85 | 0.64 | 95 | 1006.5 |
| 20260506035425 | 49 | 57 | 1.7 | 5.2 | 0.11 | 0.84 | 0.63 | 95 | 1006.5 |
| 20260506034155 | 49 | 69 | 1.7 | 5.2 | 0.11 | 0.83 | 0.61 | 95 | 1006.4 |
| 20260506032925 | 49 | 63 | 0.9 | 3.5 | 0.09 | 0.80 | 0.57 | 95 | 1006.8 |
| 20260506031655 | 50 | 76 | 0.9 | 3.5 | 0.09 | 0.77 | 0.55 | 95 | 1006.8 |
| 20260506030424 | 50 | 65 | 1.7 | 5.2 | 0.10 | 0.75 | 0.53 | 95 | 1007.0 |
| 20260506025154 | 50 | 71 | 1.7 | 6.1 | 0.12 | 0.73 | 0.51 | 95 | 1006.7 |
| 20260506023924 | 50 | 74 | 1.7 | 3.5 | 0.13 | 0.71 | 0.49 | 95 | 1007.2 |
| 20260506022655 | 50 | 63 | 0.9 | 3.5 | 0.13 | 0.70 | 0.48 | 95 | 1007.0 |
| 20260506021424 | 50 | 50 | 0.9 | 1.7 | 0.13 | 0.67 | 0.45 | 95 | 1007.1 |
| 20260506020154 | 50 | 81 | 1.7 | 5.2 | 0.13 | 0.65 | 0.43 | 95 | 1007.1 |
| 20260506014923 | 50 | 80 | 1.7 | 7.0 | 0.11 | 0.61 | 0.39 | 94 | 1007.2 |
| 20260506013653 | 50 | 54 | 1.7 | 3.5 | 0.11 | 0.58 | 0.36 | 94 | 1007.5 |
| 20260506012423 | 50 | 77 | 2.6 | 7.0 | 0.12 | 0.56 | 0.34 | 94 | 1007.1 |
| 20260506011153 | 50 | 69 | 1.7 | 5.2 | 0.12 | 0.54 | 0.32 | 94 | 1007.4 |
| 20260506005922 | 50 | 76 | 1.7 | 5.2 | 0.12 | 0.52 | 0.30 | 94 | 1007.6 |
| 20260506004652 | 51 | 74 | 0.9 | 3.5 | 0.11 | 0.49 | 0.27 | 94 | 1007.6 |
| 20260506003422 | 51 | 40 | 0.0 | 0.9 | 0.10 | 0.46 | 0.24 | 95 | 1007.7 |
| 20260506002152 | 50 | 81 | 1.7 | 6.1 | 0.08 | 0.43 | 0.21 | 94 | 1007.7 |
| 20260506000922 | 50 | 70 | 1.7 | 6.1 | 0.08 | 0.41 | 0.19 | 94 | 1008.0 |
| 20260505235651 | 51 | 80 | 0.9 | 7.0 | 0.08 | 0.39 | 0.17 | 94 | 1008.1 |
| 20260505234421 | 51 | 76 | 1.7 | 7.0 | 0.10 | 0.38 | 0.16 | 94 | 1008.1 |
| 20260505233151 | 51 | 85 | 2.6 | 7.0 | 0.10 | 0.37 | 0.14 | 94 | 1008.2 |
| 20260505231921 | 51 | 83 | 1.7 | 7.0 | 0.10 | 0.35 | 0.13 | 94 | 1008.1 |
| 20260505230651 | 51 | 80 | 2.6 | 6.1 | 0.10 | 0.34 | 0.11 | 94 | 1008.3 |
| 20260505225420 | 51 | 69 | 2.6 | 7.0 | 0.09 | 0.31 | 0.08 | 94 | 1008.4 |
| 20260505224150 | 51 | 80 | 2.6 | 7.8 | 0.07 | 0.29 | 0.06 | 94 | 1008.5 |
| 20260505222920 | 51 | 66 | 1.7 | 5.2 | 0.07 | 0.27 | 0.04 | 94 | 1008.5 |
| 20260505221650 | 51 | 80 | 2.6 | 6.1 | 0.07 | 0.26 | 0.02 | 94 | 1008.4 |
| 20260505220420 | 52 | 66 | 1.7 | 5.2 | 0.06 | 0.24 | 0.00 | 94 | 1008.7 |
| 20260505215149 | 52 | 87 | 1.7 | 5.2 | 0.06 | 0.22 | 0.22 | 94 | 1008.5 |
| 20260505213919 | 52 | 73 | 2.6 | 7.8 | 0.05 | 0.21 | 0.21 | 94 | 1008.9 |
| 20260505212649 | 52 | 90 | 2.6 | 7.0 | 0.05 | 0.20 | 0.20 | 94 | 1009.0 |
| 20260505211419 | 52 | 86 | 2.6 | 7.8 | 0.04 | 0.19 | 0.19 | 94 | 1008.9 |
| 20260505210149 | 52 | 81 | 1.7 | 6.1 | 0.04 | 0.17 | 0.17 | 94 | 1008.7 |
| 20260505204918 | 52 | 71 | 1.7 | 3.5 | 0.03 | 0.17 | 0.17 | 94 | 1008.9 |
| 20260505203648 | 52 | 77 | 2.6 | 7.0 | 0.03 | 0.15 | 0.15 | 94 | 1009.0 |
| 20260505202418 | 52 | 79 | 1.7 | 5.2 | 0.02 | 0.15 | 0.15 | 94 | 1009.1 |
| 20260505201148 | 53 | 85 | 1.7 | 3.5 | 0.03 | 0.15 | 0.14 | 93 | 1009.0 |
| 20260505195918 | 53 | 81 | 1.7 | 6.1 | 0.02 | 0.14 | 0.13 | 93 | 1009.0 |
| 20260505194647 | 53 | 90 | 1.7 | 6.1 | 0.03 | 0.15 | 0.13 | 93 | 1008.9 |
| 20260505193417 | 53 | 80 | 1.7 | 6.1 | 0.02 | 0.17 | 0.13 | 93 | 1009.1 |
| 20260505192147 | 53 | 89 | 2.6 | 7.8 | 0.01 | 0.20 | 0.12 | 93 | 1009.0 |
| 20260505190917 | 53 | 81 | 1.7 | 5.2 | 0.01 | 0.22 | 0.11 | 92 | 1009.1 |
| 20260505185647 | 53 | 57 | 0.9 | 3.5 | 0.00 | 0.22 | 0.11 | 92 | 1008.9 |
| 20260505184416 | 53 | 79 | 2.6 | 9.6 | 0.00 | 0.21 | 0.11 | 92 | 1009.2 |
| 20260505183146 | 54 | 86 | 3.5 | 7.0 | 0.00 | 0.21 | 0.11 | 92 | 1009.2 |
| 20260505181916 | 54 | 22 | 2.6 | 7.8 | 0.00 | 0.21 | 0.11 | 91 | 1009.2 |
| 20260505180646 | 55 | 26 | 1.7 | 5.2 | 0.00 | 0.21 | 0.11 | 92 | 1009.2 |
| 20260505175415 | 55 | 84 | 1.7 | 6.1 | 0.00 | 0.21 | 0.11 | 91 | 1008.9 |
| 20260505174145 | 55 | 63 | 3.5 | 9.6 | 0.00 | 0.21 | 0.11 | 91 | 1009.1 |
| 20260505172915 | 56 | 20 | 1.7 | 6.1 | 0.01 | 0.21 | 0.11 | 90 | 1009.3 |
| 20260505171644 | 56 | 19 | 1.7 | 6.1 | 0.01 | 0.21 | 0.11 | 90 | 1009.4 |
| 20260505170414 | 56 | 19 | 1.7 | 6.1 | 0.01 | 0.21 | 0.11 | 90 | 1009.4 |
| 20260505165144 | 56 | 19 | 1.7 | 6.1 | 0.01 | 0.21 | 0.11 | 90 | 1009.4 |
| 20260505163914 | 56 | 27 | 0.9 | 2.6 | 0.02 | 0.21 | 0.11 | 90 | 1009.3 |
| 20260505162644 | 56 | 83 | 1.7 | 6.1 | 0.02 | 0.21 | 0.11 | 90 | 1009.3 |
| 20260505161413 | 56 | 67 | 1.7 | 6.1 | 0.02 | 0.21 | 0.11 | 90 | 1009.5 |